Time,TemperatureF,DewpointF,PressureIn,WindDirection,WindDirectionDegrees,WindSpeedMPH,WindSpeedGustMPH,Humidity,HourlyPrecipIn,Conditions,Clouds,dailyrainin,SoftwareType,DateUTC
2013-09-27 00:12:00,33.0,32.0,30.08,West,279,0.0,-999.0,95,-99.99,,,-99.99,,2013-09-27 07:12:00,
2013-09-27 00:22:00,34.0,33.0,30.08,West,279,0.0,-999.0,96,-99.99,,,-99.99,,2013-09-27 07:22:00,
2013-09-27 00:43:00,33.0,32.0,30.08,West,279,0.0,-999.0,95,-99.99,,,-99.99,,2013-09-27 07:43:00,
2013-09-27 00:53:00,33.0,32.0,30.08,West,279,0.0,-999.0,96,-99.99,,,-99.99,,2013-09-27 07:53:00,
2013-09-27 01:11:00,33.0,32.0,30.09,West,279,0.0,-999.0,96,-99.99,,,-99.99,,2013-09-27 08:11:00,
2013-09-27 01:22:00,33.0,32.0,30.09,West,279,0.0,-999.0,96,-99.99,,,-99.99,,2013-09-27 08:22:00,
2013-09-27 01:32:00,33.0,32.0,30.09,West,279,0.0,-999.0,96,-99.99,,,-99.99,,2013-09-27 08:32:00,
2013-09-27 01:42:00,33.0,32.0,30.09,West,279,0.0,-999.0,96,-99.99,,,-99.99,,2013-09-27 08:42:00,
2013-09-27 01:52:00,32.0,31.0,30.10,West,279,0.0,-999.0,96,-99.99,,,-99.99,,2013-09-27 08:52:00,
2013-09-27 02:11:00,32.0,31.0,30.10,West,279,0.0,-999.0,96,-99.99,,,-99.99,,2013-09-27 09:11:00,
2013-09-27 02:22:00,32.0,31.0,30.11,West,279,0.0,-999.0,96,-99.99,,,-99.99,,2013-09-27 09:22:00,
2013-09-27 02:44:00,32.0,31.0,30.11,West,279,0.0,-999.0,96,-99.99,,,-99.99,,2013-09-27 09:44:00,
2013-09-27 02:53:00,32.0,31.0,30.11,West,279,0.0,-999.0,96,-99.99,,,-99.99,,2013-09-27 09:53:00,
2013-09-27 03:12:00,31.0,30.0,30.11,West,279,0.0,-999.0,96,-99.99,,,-99.99,,2013-09-27 10:12:00,
2013-09-27 03:23:00,31.0,30.0,30.11,West,279,0.0,-999.0,96,-99.99,,,-99.99,,2013-09-27 10:23:00,
2013-09-27 03:42:00,31.0,30.0,30.11,West,279,0.0,-999.0,96,-99.99,,,-99.99,,2013-09-27 10:42:00,
2013-09-27 03:52:00,31.0,30.0,30.11,West,279,0.0,-999.0,96,-99.99,,,-99.99,,2013-09-27 10:52:00,
2013-09-27 04:11:00,31.0,30.0,30.11,West,279,0.0,-999.0,96,-99.99,,,-99.99,,2013-09-27 11:11:00,
2013-09-27 04:22:00,31.0,30.0,30.12,West,279,0.0,-999.0,97,-99.99,,,-99.99,,2013-09-27 11:22:00,
2013-09-27 04:42:00,31.0,30.0,30.12,West,279,0.0,-999.0,97,-99.99,,,-99.99,,2013-09-27 11:42:00,
2013-09-27 04:52:00,32.0,31.0,30.12,West,279,0.0,-999.0,97,-99.99,,,-99.99,,2013-09-27 11:52:00,
2013-09-27 05:11:00,32.0,31.0,30.12,West,279,0.0,-999.0,97,-99.99,,,-99.99,,2013-09-27 12:11:00,
2013-09-27 05:21:00,32.0,31.0,30.12,West,279,0.0,-999.0,97,-99.99,,,-99.99,,2013-09-27 12:21:00,
2013-09-27 05:42:00,32.0,31.0,30.12,West,279,0.0,-999.0,97,-99.99,,,-99.99,,2013-09-27 12:42:00,
2013-09-27 05:52:00,33.0,32.0,30.12,West,279,0.0,-999.0,97,-99.99,,,-99.99,,2013-09-27 12:52:00,
2013-09-27 06:11:00,32.0,31.0,30.12,West,279,0.0,-999.0,97,-99.99,,,-99.99,,2013-09-27 13:11:00,
2013-09-27 06:21:00,33.0,32.0,30.12,West,279,0.0,-999.0,97,-99.99,,,-99.99,,2013-09-27 13:21:00,
2013-09-27 06:52:00,33.0,32.0,30.13,West,279,0.0,-999.0,97,-99.99,,,-99.99,,2013-09-27 13:52:00,
2013-09-27 07:11:00,33.0,32.0,30.14,West,279,0.0,-999.0,97,-99.99,,,-99.99,,2013-09-27 14:11:00,
2013-09-27 07:21:00,34.0,33.0,30.13,West,279,0.0,-999.0,97,-99.99,,,-99.99,,2013-09-27 14:21:00,
2013-09-27 07:52:00,34.0,33.0,30.14,West,279,0.0,-999.0,97,-99.99,,,-99.99,,2013-09-27 14:52:00,
2013-09-27 08:11:00,35.0,34.0,30.13,West,279,0.0,-999.0,97,-99.99,,,-99.99,,2013-09-27 15:11:00,
2013-09-27 08:21:00,35.0,34.0,30.13,West,279,0.0,-999.0,97,-99.99,,,-99.99,,2013-09-27 15:21:00,
2013-09-27 08:54:00,36.0,35.0,30.13,West,279,0.0,-999.0,97,-99.99,,,-99.99,,2013-09-27 15:54:00,
2013-09-27 09:13:00,37.0,36.0,30.14,West,279,0.0,-999.0,97,-99.99,,,-99.99,,2013-09-27 16:13:00,
2013-09-27 09:24:00,39.0,38.0,30.13,West,279,0.0,-999.0,98,-99.99,,,-99.99,,2013-09-27 16:24:00,
2013-09-27 09:53:00,41.0,40.0,30.13,West,279,0.0,-999.0,97,-99.99,,,-99.99,,2013-09-27 16:53:00,
2013-09-27 10:12:00,43.0,42.0,30.12,NE,55,0.0,-999.0,96,-99.99,,,-99.99,,2013-09-27 17:12:00,
2013-09-27 10:23:00,45.0,43.0,30.12,South,189,2.0,-999.0,91,-99.99,,,-99.99,,2013-09-27 17:23:00,
2013-09-27 10:43:00,47.0,43.0,30.12,South,187,0.0,-999.0,86,-99.99,,,-99.99,,2013-09-27 17:43:00,
2013-09-27 10:52:00,47.0,42.0,30.13,SE,146,1.0,-999.0,84,-99.99,,,-99.99,,2013-09-27 17:52:00,
2013-09-27 11:13:00,48.0,43.0,30.12,South,189,1.0,-999.0,82,-99.99,,,-99.99,,2013-09-27 18:13:00,
2013-09-27 11:21:00,50.0,43.0,30.12,South,186,0.0,-999.0,77,-99.99,,,-99.99,,2013-09-27 18:21:00,
2013-09-27 11:52:00,51.0,42.0,30.11,SW,219,1.0,-999.0,71,-99.99,,,-99.99,,2013-09-27 18:52:00,
2013-09-27 12:12:00,53.0,43.0,30.11,ESE,108,0.0,-999.0,68,-99.99,,,-99.99,,2013-09-27 19:12:00,
2013-09-27 12:22:00,52.0,39.0,30.10,South,184,1.0,-999.0,62,-99.99,,,-99.99,,2013-09-27 19:22:00,
2013-09-27 12:42:00,51.0,39.0,30.10,SW,220,4.0,-999.0,64,-99.99,,,-99.99,,2013-09-27 19:42:00,
2013-09-27 12:53:00,51.0,42.0,30.10,South,184,4.0,-999.0,70,-99.99,,,-99.99,,2013-09-27 19:53:00,
2013-09-27 13:12:00,51.0,41.0,30.09,SE,142,1.0,-999.0,69,-99.99,,,-99.99,,2013-09-27 20:12:00,
2013-09-27 13:22:00,52.0,42.0,30.09,ESE,117,0.0,-999.0,68,-99.99,,,-99.99,,2013-09-27 20:22:00,
2013-09-27 13:42:00,51.0,42.0,30.08,East,91,0.0,-999.0,70,-99.99,,,-99.99,,2013-09-27 20:42:00,
2013-09-27 13:52:00,51.0,42.0,30.07,East,95,0.0,-999.0,72,-99.99,,,-99.99,,2013-09-27 20:52:00,
2013-09-27 14:11:00,50.0,42.0,30.07,ESE,112,0.0,-999.0,73,-99.99,,,-99.99,,2013-09-27 21:11:00,
2013-09-27 14:21:00,51.0,43.0,30.06,ESE,112,0.0,-999.0,73,-99.99,,,-99.99,,2013-09-27 21:21:00,
2013-09-27 14:44:00,52.0,44.0,30.06,East,90,1.0,-999.0,73,-99.99,,,-99.99,,2013-09-27 21:44:00,
2013-09-27 14:54:00,51.0,43.0,30.06,South,175,2.0,-999.0,74,-99.99,,,-99.99,,2013-09-27 21:54:00,
2013-09-27 15:24:00,50.0,44.0,30.05,SW,221,0.0,-999.0,79,-99.99,,,-99.99,,2013-09-27 22:24:00,
2013-09-27 15:43:00,50.0,44.0,30.05,WNW,285,2.0,-999.0,80,-99.99,,,-99.99,,2013-09-27 22:43:00,
2013-09-27 15:53:00,50.0,44.0,30.05,WNW,295,3.0,-999.0,79,-99.99,,,-99.99,,2013-09-27 22:53:00,
2013-09-27 16:12:00,49.0,43.0,30.05,WNW,294,5.0,-999.0,81,-99.99,,,-99.99,,2013-09-27 23:12:00,
2013-09-27 16:22:00,49.0,44.0,30.06,WNW,298,4.0,-999.0,82,-99.99,,,-99.99,,2013-09-27 23:22:00,
2013-09-27 16:43:00,48.0,44.0,30.06,NW,313,5.0,-999.0,85,-99.99,,,-99.99,,2013-09-27 23:43:00,
2013-09-27 16:53:00,47.0,42.0,30.07,NW,321,6.0,-999.0,84,-99.99,,,-99.99,,2013-09-27 23:53:00,
2013-09-27 17:12:00,47.0,42.0,30.07,NW,315,4.0,-999.0,83,-99.99,,,-99.99,,2013-09-28 00:12:00,
2013-09-27 17:22:00,47.0,42.0,30.07,NW,315,3.0,-999.0,82,-99.99,,,-99.99,,2013-09-28 00:22:00,
2013-09-27 17:42:00,47.0,42.0,30.08,WNW,298,1.0,-999.0,82,-99.99,,,-99.99,,2013-09-28 00:42:00,
2013-09-27 17:52:00,47.0,42.0,30.07,WNW,297,0.0,-999.0,82,-99.99,,,-99.99,,2013-09-28 00:52:00,
2013-09-27 18:12:00,47.0,42.0,30.08,WNW,297,0.0,-999.0,82,-99.99,,,-99.99,,2013-09-28 01:12:00,
2013-09-27 18:21:00,47.0,42.0,30.08,WNW,297,0.0,-999.0,83,-99.99,,,-99.99,,2013-09-28 01:21:00,
2013-09-27 18:42:00,46.0,41.0,30.08,WNW,297,0.0,-999.0,83,-99.99,,,-99.99,,2013-09-28 01:42:00,
2013-09-27 18:52:00,46.0,41.0,30.08,WNW,297,0.0,-999.0,84,-99.99,,,-99.99,,2013-09-28 01:52:00,
2013-09-27 19:12:00,46.0,42.0,30.08,WNW,297,0.0,-999.0,86,-99.99,,,-99.99,,2013-09-28 02:12:00,
2013-09-27 19:22:00,46.0,43.0,30.08,WNW,297,0.0,-999.0,88,-99.99,,,-99.99,,2013-09-28 02:22:00,
2013-09-27 19:53:00,45.0,42.0,30.08,WNW,297,0.0,-999.0,89,-99.99,,,-99.99,,2013-09-28 02:53:00,
2013-09-27 20:12:00,45.0,42.0,30.08,WNW,297,0.0,-999.0,89,-99.99,,,-99.99,,2013-09-28 03:12:00,
2013-09-27 20:22:00,45.0,42.0,30.08,WNW,298,0.0,-999.0,90,-99.99,,,-99.99,,2013-09-28 03:22:00,
2013-09-27 20:55:00,45.0,42.0,30.08,WNW,297,0.0,-999.0,90,-99.99,,,-99.99,,2013-09-28 03:55:00,
2013-09-27 21:24:00,45.0,43.0,30.08,WNW,298,0.0,-999.0,91,-99.99,,,-99.99,,2013-09-28 04:24:00,
2013-09-27 21:43:00,45.0,43.0,30.08,WNW,298,0.0,-999.0,91,-99.99,,,-99.99,,2013-09-28 04:43:00,
2013-09-27 21:54:00,45.0,43.0,30.08,WNW,298,0.0,-999.0,92,-99.99,,,-99.99,,2013-09-28 04:54:00,
2013-09-27 22:12:00,45.0,43.0,30.08,East,79,0.0,-999.0,92,-99.99,,,-99.99,,2013-09-28 05:12:00,
2013-09-27 22:22:00,45.0,43.0,30.07,East,79,0.0,-999.0,92,-99.99,,,-99.99,,2013-09-28 05:22:00,
2013-09-27 22:53:00,45.0,43.0,30.07,East,79,0.0,-999.0,93,-99.99,,,-99.99,,2013-09-28 05:53:00,
2013-09-27 23:12:00,45.0,43.0,30.06,East,80,0.0,-999.0,94,-99.99,,,-99.99,,2013-09-28 06:12:00,
2013-09-27 23:22:00,44.0,42.0,30.06,East,79,0.0,-999.0,94,-99.99,,,-99.99,,2013-09-28 06:22:00,
2013-09-27 23:42:00,44.0,42.0,30.06,East,80,0.0,-999.0,94,-99.99,,,-99.99,,2013-09-28 06:42:00,
2013-09-27 23:52:00,44.0,42.0,30.06,East,80,0.0,-999.0,94,-99.99,,,-99.99,,2013-09-28 06:52:00,